Home   Weather   Majuro   Past weeks

Flag for Marshall Islands Past Weather in Majuro, Marshall Islands — Yesterday and Last 2 Weeks

Now
77 °F

Overcast.


Feels Like: 78 °F
Forecast: 80 / 85 °F
Wind: 3 mph from North

Location: Majuro Atoll

Current Time: Dec 10, 2016 at 5:48:48 am

Latest Report: Dec 10, 2016 at 4:50 am


Visibility: 15 mi

Pressure: 29.73 "Hg

Humidity: 94%

Dew Point: 75 °F

Location of MajuroLocation

Past Weather in Majuro — Graph

°F

Majuro Temperature Yesterday

Maximum temperature yesterday: 87 °F (at 10:52 am)
Minimum temperature yesterday: 78 °F (at 11:55 pm)
Average temperature yesterday: 83 °F

High & Low Weather Summary for the Past Weeks

 TemperatureHumidityPressure
High89 °F (Nov 28, 11:52 am)95% (Nov 29, 10:50 am)29.88 "Hg (Nov 29, 10:50 am)
Low76 °F (Dec 10, 3:54 am)59% (Dec 7, 12:53 pm)29.67 "Hg (Nov 25, 2:50 pm)
Average83 °F77%29.77 "Hg
* Reported Nov 25 4:52 am — Dec 10 4:50 am, Majuro, Weather by CustomWeather, © 2016

Note: Actual official high and low records may vary slightly from our data, if they occured in-between our weather recording intervals... More about our weather records

Advertising

Majuro Weather History for the Previous 24 Hours

Scroll right to see more
 ConditionsComfort  
Time TempWeatherWind HumidityBarometerVisibility
4:50 am
Sat, Dec 10
77 °FOvercast.3 mph94%29.73 "Hg15 mi
3:54 am76 °FOvercast.6 mph94%29.73 "Hg15 mi
2:55 am77 °FOvercast.6 mph94%29.74 "Hg15 mi
1:50 am78 °FSprinkles. Overcast.9 mph92%29.75 "Hg8 mi
12:55 am78 °FSprinkles. Overcast.12 mph93%29.77 "Hg8 mi
11:55 pm
Fri, Dec 9
78 °FSprinkles. Overcast.15 mph93%29.78 "Hg8 mi
10:55 pm79 °FOvercast.13 mph90%29.78 "Hg15 mi
9:50 pm79 °FSprinkles. Overcast.14 mph92%29.79 "Hg10 mi
8:52 pm79 °FSprinkles. Overcast.9 mph91%29.79 "Hg7 mi
7:51 pm83 °FMostly cloudy.12 mph81%29.77 "Hg15 mi
5:50 pm84 °FMore clouds than sun.8 mph77%29.73 "Hg15 mi
4:53 pm85 °FMore clouds than sun.8 mph75%29.72 "Hg15 mi
3:50 pm85 °FMore clouds than sun.9 mph75%29.70 "Hg15 mi
2:56 pm86 °FMore clouds than sun.9 mph76%29.70 "Hg15 mi
1:51 pm87 °FMore clouds than sun.8 mph74%29.72 "Hg15 mi
12:51 pm86 °FMore clouds than sun.15 mph75%29.75 "Hg15 mi
11:54 am87 °FMore clouds than sun.13 mph72%29.77 "Hg15 mi
10:52 am87 °FMore clouds than sun.10 mph72%29.79 "Hg15 mi
9:51 am85 °FMore clouds than sun.13 mph75%29.80 "Hg15 mi
8:53 am85 °FMore clouds than sun.16 mph75%29.80 "Hg15 mi
7:53 am84 °FMore clouds than sun.13 mph77%29.80 "Hg15 mi
6:54 am83 °FMostly cloudy.9 mph77%29.77 "Hg15 mi
Weather by CustomWeather, © 2016

See weather overviewHow to use our weather pages